DWI209 MDPC-KEWR

Flight info

Callsign DWI209
Flight time 3h 39m
Altitude 38000
Route MDPC/09 PIXAR2T PIXAR DCT ASIVO L453 CERDA DCT LNHOM/M081F360 L452 OXANA/N0465F360 AR8 ECG DCT QUART PHLBO4
Aircraft B738/M-SDE2E3FGHIRWXY/LB1

Departure

Time 2026-04-26 20:13
Airport Punta Cana International Airport (MDPC)

Arrival

Time 2026-04-26 23:52
Airport Newark Liberty International Airport (KEWR)
Time Latitude Longitude Altitude Speed Heading
2026-04-26 19:47 18.56440 -68.36805 49 ft 1 kts 265°
2026-04-26 20:01 18.56440 -68.36806 49 ft 0 kts 265°
2026-04-26 20:01 18.56440 -68.36807 49 ft 0 kts 265°
2026-04-26 20:02 18.56440 -68.36808 49 ft 0 kts 265°
2026-04-26 20:03 18.56440 -68.36809 49 ft 0 kts 265°
2026-04-26 20:03 18.56440 -68.36810 49 ft 0 kts 265°
2026-04-26 20:03 18.56440 -68.36811 49 ft 1 kts 266°
2026-04-26 20:04 18.56457 -68.36816 72 ft 5 kts 14°
2026-04-26 20:04 18.56460 -68.36804 70 ft 1 kts 105°
2026-04-26 20:04 18.56459 -68.36801 70 ft 0 kts 105°
2026-04-26 20:05 18.56461 -68.36766 49 ft 8 kts 56°
2026-04-26 20:05 18.56503 -68.36755 49 ft 6 kts 344°
2026-04-26 20:05 18.56520 -68.36777 46 ft 3 kts 286°
2026-04-26 20:05 18.56520 -68.36795 49 ft 2 kts 266°
2026-04-26 20:06 18.56517 -68.36823 49 ft 8 kts 264°
2026-04-26 20:06 18.56511 -68.36888 49 ft 9 kts 264°
2026-04-26 20:06 18.56505 -68.36953 49 ft 8 kts 264°
2026-04-26 20:06 18.56498 -68.37007 49 ft 7 kts 261°
2026-04-26 20:07 18.56496 -68.37051 49 ft 6 kts 269°
2026-04-26 20:07 18.56496 -68.37089 49 ft 5 kts 272°
2026-04-26 20:07 18.56499 -68.37123 50 ft 4 kts 277°
2026-04-26 20:07 18.56504 -68.37151 50 ft 4 kts 281°
2026-04-26 20:08 18.56509 -68.37176 48 ft 3 kts 284°
2026-04-26 20:08 18.56512 -68.37190 50 ft 1 kts 279°
2026-04-26 20:08 18.56501 -68.37229 49 ft 16 kts 253°
2026-04-26 20:08 18.56472 -68.37361 48 ft 19 kts 262°
2026-04-26 20:09 18.56458 -68.37490 49 ft 17 kts 263°
2026-04-26 20:09 18.56445 -68.37605 47 ft 15 kts 263°
2026-04-26 20:09 18.56439 -68.37707 49 ft 13 kts 273°
2026-04-26 20:09 18.56472 -68.37775 50 ft 5 kts 327°
2026-04-26 20:10 18.56496 -68.37784 50 ft 1 kts 348°
2026-04-26 20:10 18.56497 -68.37784 50 ft 0 kts 349°
2026-04-26 20:11 18.56517 -68.37785 50 ft 7 kts 358°
2026-04-26 20:11 18.56570 -68.37788 50 ft 8 kts 358°
2026-04-26 20:12 18.56596 -68.37769 50 ft 2 kts 81°
2026-04-26 20:12 18.56613 -68.37733 50 ft 7 kts 73°
2026-04-26 20:12 18.56637 -68.37517 50 ft 68 kts 85°
2026-04-26 20:12 18.56700 -68.36728 52 ft 144 kts 85°
2026-04-26 20:13 18.56828 -68.35491 313 ft 182 kts 82°
2026-04-26 20:13 18.57034 -68.34343 1721 ft 142 kts 79°
2026-04-26 20:13 18.57298 -68.33315 2299 ft 165 kts 76°
2026-04-26 20:13 18.57603 -68.31982 2587 ft 202 kts 73°
2026-04-26 20:14 18.58306 -68.30706 3562 ft 196 kts 50°
2026-04-26 20:14 18.59386 -68.29892 4569 ft 192 kts 20°
2026-04-26 20:14 18.60749 -68.29559 5058 ft 220 kts
2026-04-26 20:14 18.62462 -68.29449 4875 ft 272 kts
2026-04-26 20:15 18.64492 -68.29409 4973 ft 309 kts 354°
2026-04-26 20:15 18.66707 -68.29844 5379 ft 332 kts 336°
2026-04-26 20:15 18.68641 -68.30963 7162 ft 300 kts 323°
2026-04-26 20:15 18.70155 -68.32289 9006 ft 270 kts 316°
2026-04-26 20:16 18.71716 -68.33421 9948 ft 281 kts 326°
2026-04-26 20:16 18.73533 -68.34483 10024 ft 318 kts 332°
2026-04-26 20:16 18.75650 -68.35528 10108 ft 349 kts 328°
2026-04-26 20:16 18.77615 -68.37057 10923 ft 347 kts 313°
2026-04-26 20:17 18.79038 -68.39015 11997 ft 340 kts 296°
2026-04-26 20:17 18.80100 -68.41175 13186 ft 324 kts 295°
2026-04-26 20:17 18.81197 -68.43236 14027 ft 325 kts 298°
2026-04-26 20:17 18.82440 -68.45259 14635 ft 329 kts 301°
2026-04-26 20:18 18.83792 -68.47215 15360 ft 329 kts 304°
2026-04-26 20:18 18.85213 -68.49114 16090 ft 329 kts 306°
2026-04-26 20:18 18.86686 -68.50988 16689 ft 334 kts 307°
2026-04-26 20:18 18.88183 -68.52838 17285 ft 337 kts 307°
2026-04-26 20:19 18.89735 -68.54724 17886 ft 341 kts 307°
2026-04-26 20:19 18.91312 -68.56621 18443 ft 344 kts 308°
2026-04-26 20:19 18.92901 -68.58524 18982 ft 346 kts 307°
2026-04-26 20:19 18.94503 -68.60439 19514 ft 349 kts 307°
2026-04-26 20:20 18.96120 -68.62370 20037 ft 352 kts 307°
2026-04-26 20:20 18.97754 -68.64322 20575 ft 355 kts 307°
2026-04-26 20:20 18.99375 -68.66258 21086 ft 357 kts 307°
2026-04-26 20:20 19.01028 -68.68234 21603 ft 360 kts 307°
2026-04-26 20:21 19.02690 -68.70220 22109 ft 362 kts 307°
2026-04-26 20:21 19.04367 -68.72226 22606 ft 365 kts 307°
2026-04-26 20:21 19.06055 -68.74246 23097 ft 368 kts 306°
2026-04-26 20:21 19.07758 -68.76284 23571 ft 371 kts 306°
2026-04-26 20:22 19.09472 -68.78336 23984 ft 373 kts 306°
2026-04-26 20:22 19.11187 -68.80389 24426 ft 373 kts 306°
2026-04-26 20:22 19.12911 -68.82453 24877 ft 374 kts 306°
2026-04-26 20:22 19.14651 -68.84517 25304 ft 377 kts 308°
2026-04-26 20:23 19.16486 -68.86508 25725 ft 380 kts 310°
2026-04-26 20:23 19.18381 -68.88464 26146 ft 381 kts 310°
2026-04-26 20:23 19.20293 -68.90407 26659 ft 379 kts 310°
2026-04-26 20:23 19.22183 -68.92325 27339 ft 373 kts 310°
2026-04-26 20:24 19.24015 -68.94192 27965 ft 369 kts 309°
2026-04-26 20:24 19.25875 -68.96106 28104 ft 378 kts 309°
2026-04-26 20:24 19.27778 -68.98078 28199 ft 387 kts 309°
2026-04-26 20:25 19.31722 -69.02175 28361 ft 405 kts 309°
2026-04-26 20:25 19.35823 -69.06437 28487 ft 421 kts 309°
2026-04-26 20:26 19.40079 -69.10860 28620 ft 435 kts 310°
2026-04-26 20:26 19.44459 -69.15413 28721 ft 447 kts 310°
2026-04-26 20:27 19.48952 -69.20088 28881 ft 456 kts 310°
2026-04-26 20:27 19.51193 -69.22420 29083 ft 457 kts 310°
2026-04-26 20:27 19.53465 -69.24784 29438 ft 454 kts 309°
2026-04-26 20:27 19.55713 -69.27122 29863 ft 451 kts 309°
2026-04-26 20:28 19.57945 -69.29446 30212 ft 448 kts 309°
2026-04-26 20:28 19.60142 -69.31739 30414 ft 449 kts 309°
2026-04-26 20:28 19.62367 -69.34064 30605 ft 450 kts 309°
2026-04-26 20:28 19.64597 -69.36394 30859 ft 449 kts 309°
2026-04-26 20:29 19.66822 -69.38719 31142 ft 448 kts 309°
2026-04-26 20:29 19.69043 -69.41040 31422 ft 447 kts 309°
2026-04-26 20:29 19.71260 -69.43359 31668 ft 447 kts 309°
2026-04-26 20:29 19.73447 -69.45647 31919 ft 447 kts 309°
2026-04-26 20:30 19.75682 -69.47986 32202 ft 446 kts 308°
2026-04-26 20:30 19.77889 -69.50297 32484 ft 445 kts 308°
2026-04-26 20:30 19.80093 -69.52606 32747 ft 444 kts 308°
2026-04-26 20:30 19.82288 -69.54906 33111 ft 442 kts 308°
2026-04-26 20:31 19.84439 -69.57159 33488 ft 439 kts 308°
2026-04-26 20:31 19.86611 -69.59438 33785 ft 438 kts 308°
2026-04-26 20:31 19.88780 -69.61715 34010 ft 438 kts 308°
2026-04-26 20:31 19.90951 -69.63996 34208 ft 438 kts 308°
2026-04-26 20:32 19.93169 -69.66248 34401 ft 444 kts 313°
2026-04-26 20:32 19.95762 -69.68020 34700 ft 455 kts 326°
2026-04-26 20:32 19.98774 -69.69296 34973 ft 466 kts 335°
2026-04-26 20:32 20.01970 -69.69922 35127 ft 481 kts 347°
2026-04-26 20:33 20.05321 -69.70172 35289 ft 484 kts 348°
2026-04-26 20:33 20.08694 -69.70355 35439 ft 486 kts 349°
2026-04-26 20:33 20.12086 -69.70533 35613 ft 486 kts 348°
2026-04-26 20:33 20.15474 -69.70730 35814 ft 486 kts 348°
2026-04-26 20:34 20.18848 -69.70948 35939 ft 486 kts 348°
2026-04-26 20:34 20.25644 -69.71435 36109 ft 489 kts 347°
2026-04-26 20:34 20.28999 -69.71681 36339 ft 488 kts 347°
2026-04-26 20:35 20.32383 -69.71927 36586 ft 486 kts 347°
2026-04-26 20:35 20.35760 -69.72173 36803 ft 485 kts 347°
2026-04-26 20:35 20.39125 -69.72417 36961 ft 486 kts 347°
2026-04-26 20:35 20.42504 -69.72663 37090 ft 487 kts 347°
2026-04-26 20:36 20.45886 -69.72910 37255 ft 487 kts 347°
2026-04-26 20:36 20.49275 -69.73167 37431 ft 486 kts 347°
2026-04-26 20:36 20.52616 -69.73425 37585 ft 486 kts 347°
2026-04-26 20:36 20.56038 -69.73689 37742 ft 487 kts 347°
2026-04-26 20:37 20.59366 -69.73943 37917 ft 486 kts 347°
2026-04-26 20:37 20.66149 -69.74456 37945 ft 489 kts 347°
2026-04-26 20:38 20.72926 -69.74962 37943 ft 488 kts 347°
2026-04-26 20:38 20.79694 -69.75469 37949 ft 487 kts 347°
2026-04-26 20:39 20.86421 -69.75977 37949 ft 486 kts 347°
2026-04-26 20:39 20.93166 -69.76487 37948 ft 486 kts 347°
2026-04-26 20:40 20.99907 -69.77003 37952 ft 485 kts 347°
2026-04-26 20:40 21.06647 -69.77521 37951 ft 485 kts 347°
2026-04-26 20:41 21.13343 -69.78035 37956 ft 484 kts 347°
2026-04-26 20:41 21.20092 -69.78553 37978 ft 485 kts 347°
2026-04-26 20:42 21.26839 -69.79071 37952 ft 485 kts 346°
2026-04-26 20:42 21.33538 -69.79573 37955 ft 486 kts 346°
2026-04-26 20:43 21.40288 -69.80075 37953 ft 486 kts 346°
2026-04-26 20:43 21.47047 -69.80581 37947 ft 486 kts 346°
2026-04-26 20:44 21.53797 -69.81087 37986 ft 486 kts 346°
2026-04-26 20:44 21.60528 -69.81594 37962 ft 487 kts 346°
2026-04-26 20:45 21.67274 -69.82101 37958 ft 487 kts 346°
2026-04-26 20:45 21.74041 -69.82610 37953 ft 487 kts 346°
2026-04-26 20:46 21.80811 -69.83119 37952 ft 487 kts 346°
2026-04-26 20:46 21.87578 -69.83630 37955 ft 487 kts 346°
2026-04-26 20:47 21.94329 -69.84139 37953 ft 486 kts 346°
2026-04-26 20:47 22.01070 -69.84649 37951 ft 485 kts 346°
2026-04-26 20:48 22.07760 -69.85163 37952 ft 484 kts 346°
2026-04-26 20:48 22.14469 -69.85680 37981 ft 483 kts 346°
2026-04-26 20:49 22.21177 -69.86198 37963 ft 482 kts 346°
2026-04-26 20:49 22.27870 -69.86707 37952 ft 481 kts 346°
2026-04-26 20:50 22.34538 -69.87203 37954 ft 479 kts 346°
2026-04-26 20:50 22.41181 -69.87698 37953 ft 478 kts 346°
2026-04-26 20:51 22.47757 -69.88190 37981 ft 476 kts 346°
2026-04-26 20:51 22.54365 -69.88686 37966 ft 475 kts 346°
2026-04-26 20:52 22.60948 -69.89180 37953 ft 473 kts 346°
2026-04-26 20:52 22.67530 -69.89675 37954 ft 472 kts 346°
2026-04-26 20:53 22.73973 -69.90364 37951 ft 459 kts 337°
2026-04-26 20:53 22.77001 -69.91291 37996 ft 445 kts 327°
2026-04-26 20:53 22.79818 -69.92617 37972 ft 440 kts 324°
2026-04-26 20:54 22.85381 -69.95376 37961 ft 439 kts 324°
2026-04-26 20:54 22.90956 -69.98124 37961 ft 440 kts 325°
2026-04-26 20:55 22.96531 -70.00839 37963 ft 440 kts 325°
2026-04-26 20:55 23.02133 -70.03553 37962 ft 441 kts 325°
2026-04-26 20:56 23.07747 -70.06272 37960 ft 442 kts 325°
2026-04-26 20:56 23.12416 -70.08536 37966 ft 443 kts 325°
2026-04-26 20:57 23.18965 -70.11714 37963 ft 443 kts 325°
2026-04-26 20:57 23.23687 -70.14008 37965 ft 443 kts 325°
2026-04-26 20:58 23.29324 -70.16748 37962 ft 444 kts 325°
2026-04-26 20:58 23.34930 -70.19477 37967 ft 444 kts 325°
2026-04-26 20:59 23.40567 -70.22223 37970 ft 444 kts 325°
2026-04-26 20:59 23.46208 -70.24974 37967 ft 444 kts 325°
2026-04-26 21:00 23.51546 -70.27578 37966 ft 444 kts 325°
2026-04-26 21:00 23.57142 -70.30311 37968 ft 442 kts 325°
2026-04-26 21:01 23.62760 -70.33058 37970 ft 442 kts 325°
2026-04-26 21:01 23.68376 -70.35806 37966 ft 441 kts 325°
2026-04-26 21:02 23.73973 -70.38549 37993 ft 441 kts 325°
2026-04-26 21:02 23.79541 -70.41281 37974 ft 441 kts 325°
2026-04-26 21:03 23.85132 -70.44025 37959 ft 441 kts 325°
2026-04-26 21:03 23.90728 -70.46774 37963 ft 441 kts 325°
2026-04-26 21:04 23.96327 -70.49527 37973 ft 441 kts 325°
2026-04-26 21:04 24.01917 -70.52279 37975 ft 441 kts 325°
2026-04-26 21:05 24.07522 -70.55042 38000 ft 442 kts 326°
2026-04-26 21:05 24.13130 -70.57808 37983 ft 442 kts 326°
2026-04-26 21:06 24.18750 -70.60582 37970 ft 443 kts 326°
2026-04-26 21:06 24.24333 -70.63340 37974 ft 443 kts 326°
2026-04-26 21:07 24.29959 -70.66122 37972 ft 442 kts 326°
2026-04-26 21:07 24.35574 -70.68902 37975 ft 442 kts 326°
2026-04-26 21:08 24.41193 -70.71687 37973 ft 443 kts 326°
2026-04-26 21:08 24.46767 -70.74452 37977 ft 443 kts 326°
2026-04-26 21:09 24.52388 -70.77243 37979 ft 443 kts 326°
2026-04-26 21:09 24.58013 -70.80039 37977 ft 442 kts 326°
2026-04-26 21:10 24.63626 -70.82831 37976 ft 442 kts 326°
2026-04-26 21:10 24.69192 -70.85604 38025 ft 442 kts 326°
2026-04-26 21:11 24.74812 -70.88406 37993 ft 443 kts 326°
2026-04-26 21:11 24.80438 -70.91214 37975 ft 443 kts 326°
2026-04-26 21:12 24.86064 -70.94025 37983 ft 444 kts 326°
2026-04-26 21:12 24.91659 -70.96823 37979 ft 445 kts 326°
2026-04-26 21:13 24.97302 -70.99647 37975 ft 444 kts 326°
2026-04-26 21:13 25.03138 -71.01971 38002 ft 457 kts 338°
2026-04-26 21:14 25.09349 -71.03583 37981 ft 459 kts 339°
2026-04-26 21:14 25.15578 -71.05174 37978 ft 459 kts 339°
2026-04-26 21:15 25.21793 -71.06801 37981 ft 459 kts 339°
2026-04-26 21:15 25.27974 -71.08445 37980 ft 459 kts 339°
2026-04-26 21:16 25.34202 -71.10110 37992 ft 460 kts 339°
2026-04-26 21:16 25.40431 -71.11778 37989 ft 460 kts 339°
2026-04-26 21:17 25.46619 -71.13434 37983 ft 461 kts 339°
2026-04-26 21:17 25.52869 -71.15109 37985 ft 461 kts 339°
2026-04-26 21:18 25.59104 -71.16781 37983 ft 461 kts 339°
2026-04-26 21:18 25.65356 -71.18460 37992 ft 462 kts 340°
2026-04-26 21:19 25.71605 -71.20140 37990 ft 462 kts 340°
2026-04-26 21:19 25.77862 -71.21823 37986 ft 462 kts 340°
2026-04-26 21:20 25.84120 -71.23509 37986 ft 462 kts 340°
2026-04-26 21:20 25.90331 -71.25184 37987 ft 462 kts 340°
2026-04-26 21:21 25.96585 -71.26873 37989 ft 463 kts 341°
2026-04-26 21:21 26.02843 -71.28564 37990 ft 463 kts 341°
2026-04-26 21:22 26.09099 -71.30257 37988 ft 463 kts 341°
2026-04-26 21:22 26.15370 -71.31955 37992 ft 463 kts 341°
2026-04-26 21:23 26.24717 -71.34491 38006 ft 462 kts 341°
2026-04-26 21:23 26.30984 -71.36193 37995 ft 463 kts 341°
2026-04-26 21:24 26.37250 -71.37897 37993 ft 463 kts 341°
2026-04-26 21:24 26.43509 -71.39601 37994 ft 462 kts 341°
2026-04-26 21:25 26.49719 -71.41293 37991 ft 462 kts 341°
2026-04-26 21:25 26.55972 -71.42999 37994 ft 462 kts 341°
2026-04-26 21:26 26.62234 -71.44709 37997 ft 462 kts 341°
2026-04-26 21:26 26.68485 -71.46419 37993 ft 462 kts 341°
2026-04-26 21:27 26.74713 -71.48124 37993 ft 462 kts 341°
2026-04-26 21:27 26.80967 -71.49838 37992 ft 462 kts 341°
2026-04-26 21:28 26.87223 -71.51555 38002 ft 463 kts 341°
2026-04-26 21:28 26.93478 -71.53273 37994 ft 463 kts 341°
2026-04-26 21:29 26.99745 -71.54996 37993 ft 463 kts 341°
2026-04-26 21:29 27.05959 -71.56707 37995 ft 463 kts 341°
2026-04-26 21:30 27.12237 -71.58438 37999 ft 463 kts 341°
2026-04-26 21:30 27.18506 -71.60168 38008 ft 464 kts 341°
2026-04-26 21:31 27.24742 -71.61890 38006 ft 464 kts 341°
2026-04-26 21:31 27.31018 -71.63626 37999 ft 464 kts 341°
2026-04-26 21:32 27.37281 -71.65361 38000 ft 464 kts 341°
2026-04-26 21:32 27.43561 -71.67102 38017 ft 464 kts 341°
2026-04-26 21:33 27.49834 -71.68843 38003 ft 464 kts 341°
2026-04-26 21:33 27.56103 -71.70585 37999 ft 464 kts 341°
2026-04-26 21:34 27.62344 -71.72321 38001 ft 464 kts 341°
2026-04-26 21:34 27.68618 -71.74069 38005 ft 464 kts 341°
2026-04-26 21:35 27.74879 -71.75815 38019 ft 464 kts 341°
2026-04-26 21:35 27.81161 -71.77569 38005 ft 464 kts 341°
2026-04-26 21:36 27.86365 -71.79024 38006 ft 464 kts 341°
2026-04-26 21:36 27.93691 -71.81074 38004 ft 463 kts 341°
2026-04-26 21:37 27.99951 -71.82828 38004 ft 463 kts 341°
2026-04-26 21:37 28.06185 -71.84577 38014 ft 463 kts 341°
2026-04-26 21:38 28.12443 -71.86335 38015 ft 463 kts 341°
2026-04-26 21:38 28.18713 -71.88099 38013 ft 463 kts 341°
2026-04-26 21:39 28.24976 -71.89862 38016 ft 463 kts 341°
2026-04-26 21:39 28.31241 -71.91629 38037 ft 463 kts 341°
2026-04-26 21:40 28.37461 -71.93386 38006 ft 463 kts 341°
2026-04-26 21:40 28.43712 -71.95155 38006 ft 463 kts 341°
2026-04-26 21:41 28.49964 -71.96928 38009 ft 462 kts 341°
2026-04-26 21:41 28.56211 -71.98702 38011 ft 462 kts 341°
2026-04-26 21:42 28.62435 -72.00471 38025 ft 461 kts 341°
2026-04-26 21:42 28.68668 -72.02245 38010 ft 461 kts 341°
2026-04-26 21:43 28.74840 -72.04003 38014 ft 460 kts 341°
2026-04-26 21:43 28.81062 -72.05778 38013 ft 460 kts 341°
2026-04-26 21:44 28.87260 -72.07548 38013 ft 459 kts 341°
2026-04-26 21:44 28.92414 -72.09022 38026 ft 459 kts 341°
2026-04-26 21:45 28.98618 -72.10799 38016 ft 459 kts 341°
2026-04-26 21:45 29.04829 -72.12579 38011 ft 459 kts 341°
2026-04-26 21:46 29.11026 -72.14357 38015 ft 459 kts 341°
2026-04-26 21:46 29.17177 -72.16125 38017 ft 458 kts 341°
2026-04-26 21:47 29.23364 -72.17905 38019 ft 458 kts 341°
2026-04-26 21:47 29.29553 -72.19688 38015 ft 458 kts 341°
2026-04-26 21:48 29.35741 -72.21472 38016 ft 458 kts 341°
2026-04-26 21:48 29.41922 -72.23257 38016 ft 457 kts 341°
2026-04-26 21:49 29.48084 -72.25039 38016 ft 457 kts 341°
2026-04-26 21:49 29.54263 -72.26829 38019 ft 457 kts 341°
2026-04-26 21:50 29.60399 -72.28607 38009 ft 457 kts 341°
2026-04-26 21:50 29.66563 -72.30395 38014 ft 456 kts 341°
2026-04-26 21:51 29.72723 -72.32186 38012 ft 456 kts 341°
2026-04-26 21:51 29.78878 -72.33977 38017 ft 456 kts 341°
2026-04-26 21:52 29.84994 -72.35759 38015 ft 456 kts 341°
2026-04-26 21:52 29.91155 -72.37556 38014 ft 456 kts 341°
2026-04-26 21:53 29.97301 -72.39352 38014 ft 455 kts 341°
2026-04-26 21:53 30.03443 -72.41148 38011 ft 455 kts 341°
2026-04-26 21:54 30.09592 -72.42949 38012 ft 456 kts 341°
2026-04-26 21:54 30.15715 -72.44745 38012 ft 456 kts 341°
2026-04-26 21:55 30.21865 -72.46559 38008 ft 456 kts 341°
2026-04-26 21:55 30.27991 -72.48374 38009 ft 456 kts 341°
2026-04-26 21:56 30.34132 -72.50196 38028 ft 456 kts 341°
2026-04-26 21:56 30.40291 -72.52025 38011 ft 456 kts 341°
2026-04-26 21:57 30.46451 -72.53856 38005 ft 457 kts 341°
2026-04-26 21:57 30.52603 -72.55687 38005 ft 457 kts 341°
2026-04-26 21:58 30.58767 -72.57526 38006 ft 457 kts 341°
2026-04-26 21:58 30.64924 -72.59376 38008 ft 457 kts 340°
2026-04-26 21:59 30.71078 -72.61230 38013 ft 457 kts 341°
2026-04-26 21:59 30.77191 -72.63072 38003 ft 456 kts 341°
2026-04-26 22:00 30.83336 -72.64925 38005 ft 455 kts 341°
2026-04-26 22:00 30.89469 -72.66778 38030 ft 455 kts 341°
2026-04-26 22:01 30.95598 -72.68632 38010 ft 454 kts 341°
2026-04-26 22:01 31.01723 -72.70487 38001 ft 454 kts 341°
2026-04-26 22:02 31.07851 -72.72346 38003 ft 454 kts 341°
2026-04-26 22:02 31.13911 -72.74186 38003 ft 453 kts 341°
2026-04-26 22:03 31.20022 -72.76045 38005 ft 454 kts 341°
2026-04-26 22:03 31.26139 -72.77908 37998 ft 454 kts 341°
2026-04-26 22:04 31.32250 -72.79771 38000 ft 454 kts 341°
2026-04-26 22:04 31.38360 -72.81636 37997 ft 454 kts 341°
2026-04-26 22:05 31.44477 -72.83507 37999 ft 454 kts 341°
2026-04-26 22:05 31.50559 -72.85368 38008 ft 454 kts 341°
2026-04-26 22:06 31.56686 -72.87247 37996 ft 453 kts 340°
2026-04-26 22:06 31.62796 -72.89122 37999 ft 453 kts 340°
2026-04-26 22:07 31.68841 -72.90980 37999 ft 452 kts 340°
2026-04-26 22:07 31.74915 -72.92850 38018 ft 451 kts 340°
2026-04-26 22:08 31.80974 -72.94718 38003 ft 449 kts 340°
2026-04-26 22:08 31.87007 -72.96578 37998 ft 444 kts 340°
2026-04-26 22:09 31.92942 -72.98411 37989 ft 439 kts 340°
2026-04-26 22:09 31.98843 -73.00239 37994 ft 438 kts 340°
2026-04-26 22:10 32.04698 -73.02055 38002 ft 437 kts 340°
2026-04-26 22:10 32.10590 -73.03884 37990 ft 437 kts 340°
2026-04-26 22:11 32.16489 -73.05717 38001 ft 437 kts 340°
2026-04-26 22:11 32.22346 -73.07540 38004 ft 438 kts 340°
2026-04-26 22:12 32.28270 -73.09386 37987 ft 440 kts 340°
2026-04-26 22:12 32.34204 -73.11238 37990 ft 441 kts 340°
2026-04-26 22:13 32.40150 -73.13100 38010 ft 442 kts 340°
2026-04-26 22:13 32.46112 -73.14970 37990 ft 444 kts 340°
2026-04-26 22:14 32.52043 -73.16833 37987 ft 444 kts 340°
2026-04-26 22:14 32.58032 -73.18715 37991 ft 444 kts 340°
2026-04-26 22:15 32.64013 -73.20598 37989 ft 443 kts 340°
2026-04-26 22:15 32.69940 -73.22467 37989 ft 442 kts 340°
2026-04-26 22:16 32.75876 -73.24341 37988 ft 441 kts 340°
2026-04-26 22:16 32.81804 -73.26215 38013 ft 440 kts 339°
2026-04-26 22:17 32.87720 -73.28089 37993 ft 439 kts 339°
2026-04-26 22:17 32.93625 -73.29961 37986 ft 438 kts 339°
2026-04-26 22:18 32.99507 -73.31828 37986 ft 437 kts 339°
2026-04-26 22:18 33.05389 -73.33700 37984 ft 437 kts 339°
2026-04-26 22:19 33.11275 -73.35575 37986 ft 438 kts 338°
2026-04-26 22:19 33.17179 -73.37458 37990 ft 440 kts 339°
2026-04-26 22:20 33.22073 -73.39020 37989 ft 442 kts 339°
2026-04-26 22:20 33.29045 -73.41246 37988 ft 444 kts 339°
2026-04-26 22:21 33.35006 -73.43149 37986 ft 446 kts 339°
2026-04-26 22:21 33.41029 -73.45075 37995 ft 449 kts 339°
2026-04-26 22:22 33.47077 -73.47011 37989 ft 451 kts 339°
2026-04-26 22:22 33.53172 -73.48965 37988 ft 453 kts 339°
2026-04-26 22:23 33.59225 -73.50908 37986 ft 453 kts 339°
2026-04-26 22:23 33.65371 -73.52884 37984 ft 455 kts 338°
2026-04-26 22:24 33.71448 -73.54842 37988 ft 456 kts 338°
2026-04-26 22:24 33.77588 -73.56822 37996 ft 457 kts 338°
2026-04-26 22:25 33.83743 -73.58810 37996 ft 458 kts 338°
2026-04-26 22:25 33.89913 -73.60805 38010 ft 459 kts 339°
2026-04-26 22:26 33.96085 -73.62802 37988 ft 458 kts 339°
2026-04-26 22:26 34.02234 -73.64795 37987 ft 457 kts 338°
2026-04-26 22:27 34.08296 -73.66763 37986 ft 451 kts 339°
2026-04-26 22:27 34.14333 -73.68725 37989 ft 446 kts 339°
2026-04-26 22:28 34.20320 -73.70678 38008 ft 448 kts 339°
2026-04-26 22:28 34.26398 -73.72665 38004 ft 455 kts 339°
2026-04-26 22:29 34.32490 -73.74690 37982 ft 456 kts 335°
2026-04-26 22:29 34.38009 -73.78213 37998 ft 444 kts 318°
2026-04-26 22:30 34.41733 -73.82401 38023 ft 438 kts 309°
2026-04-26 22:30 34.45969 -73.87731 37997 ft 439 kts 309°
2026-04-26 22:31 34.50225 -73.93074 37995 ft 440 kts 309°
2026-04-26 22:31 34.54499 -73.98395 37993 ft 440 kts 309°
2026-04-26 22:32 34.58756 -74.03677 37993 ft 433 kts 309°
2026-04-26 22:32 34.62926 -74.08853 37995 ft 426 kts 309°
2026-04-26 22:33 34.69109 -74.16559 37997 ft 426 kts 309°
2026-04-26 22:34 34.73257 -74.21737 38017 ft 427 kts 309°
2026-04-26 22:34 34.77378 -74.26889 38017 ft 428 kts 309°
2026-04-26 22:35 34.81538 -74.32096 38010 ft 429 kts 309°
2026-04-26 22:35 34.85705 -74.37321 38011 ft 431 kts 309°
2026-04-26 22:36 34.89887 -74.42572 38025 ft 433 kts 309°
2026-04-26 22:36 34.94091 -74.47858 38022 ft 435 kts 309°
2026-04-26 22:37 34.98308 -74.53170 38034 ft 436 kts 309°
2026-04-26 22:37 35.02511 -74.58471 38031 ft 438 kts 309°
2026-04-26 22:38 35.06748 -74.63824 38031 ft 439 kts 309°
2026-04-26 22:38 35.10991 -74.69194 38038 ft 439 kts 309°
2026-04-26 22:39 35.15222 -74.74557 38039 ft 438 kts 309°
2026-04-26 22:39 35.19454 -74.79929 38046 ft 438 kts 309°
2026-04-26 22:40 35.23650 -74.85265 38045 ft 437 kts 308°
2026-04-26 22:40 35.27861 -74.90629 38045 ft 436 kts 308°
2026-04-26 22:41 35.32044 -74.95966 38057 ft 436 kts 308°
2026-04-26 22:41 35.34159 -74.98671 37786 ft 441 kts 308°
2026-04-26 22:41 35.36288 -75.01392 37524 ft 441 kts 308°
2026-04-26 22:41 35.38409 -75.04104 37254 ft 440 kts 308°
2026-04-26 22:42 35.40525 -75.06811 37003 ft 440 kts 309°
2026-04-26 22:42 35.42647 -75.09524 36754 ft 441 kts 309°
2026-04-26 22:42 35.44774 -75.12242 36516 ft 443 kts 309°
2026-04-26 22:42 35.46909 -75.14972 36255 ft 444 kts 308°
2026-04-26 22:43 35.49052 -75.17712 36103 ft 444 kts 308°
2026-04-26 22:43 35.53304 -75.23158 36074 ft 445 kts 308°
2026-04-26 22:44 35.57602 -75.28674 36077 ft 447 kts 308°
2026-04-26 22:44 35.61906 -75.34208 36080 ft 448 kts 309°
2026-04-26 22:45 35.66219 -75.39762 36084 ft 449 kts 308°
2026-04-26 22:45 35.70514 -75.45302 36099 ft 449 kts 309°
2026-04-26 22:46 35.74826 -75.50874 36094 ft 449 kts 309°
2026-04-26 22:46 35.79135 -75.56451 36101 ft 449 kts 309°
2026-04-26 22:47 35.83448 -75.62044 36100 ft 449 kts 309°
2026-04-26 22:47 35.87720 -75.67593 36129 ft 448 kts 309°
2026-04-26 22:48 35.92008 -75.73185 36138 ft 449 kts 309°
2026-04-26 22:48 35.96303 -75.78798 36139 ft 449 kts 309°
2026-04-26 22:49 36.00596 -75.84417 36109 ft 449 kts 310°
2026-04-26 22:49 36.04852 -75.89996 36111 ft 448 kts 309°
2026-04-26 22:50 36.09121 -75.95602 36118 ft 448 kts 309°
2026-04-26 22:50 36.13400 -76.01231 36118 ft 447 kts 309°
2026-04-26 22:51 36.17662 -76.06846 36128 ft 447 kts 309°
2026-04-26 22:51 36.21918 -76.12465 36120 ft 447 kts 309°
2026-04-26 22:52 36.26170 -76.18069 36127 ft 447 kts 311°
2026-04-26 22:52 36.30588 -76.23432 36119 ft 447 kts 314°
2026-04-26 22:53 36.35111 -76.28730 36121 ft 446 kts 314°
2026-04-26 22:53 36.39603 -76.34027 36123 ft 446 kts 313°
2026-04-26 22:54 36.44079 -76.39352 36124 ft 445 kts 313°
2026-04-26 22:54 36.48541 -76.44686 36133 ft 445 kts 313°
2026-04-26 22:55 36.53004 -76.50035 36132 ft 445 kts 313°
2026-04-26 22:55 36.57462 -76.55385 36145 ft 445 kts 314°
2026-04-26 22:56 36.61889 -76.60705 36156 ft 445 kts 314°
2026-04-26 22:56 36.66335 -76.66056 36162 ft 445 kts 314°
2026-04-26 22:57 36.70777 -76.71412 36149 ft 444 kts 314°
2026-04-26 22:57 36.75218 -76.76777 36154 ft 444 kts 314°
2026-04-26 22:58 36.79654 -76.82144 36152 ft 444 kts 314°
2026-04-26 22:58 36.84089 -76.87520 36148 ft 444 kts 314°
2026-04-26 22:59 36.88517 -76.92896 36160 ft 444 kts 314°
2026-04-26 22:59 36.92914 -76.98243 36158 ft 443 kts 314°
2026-04-26 23:00 36.97331 -77.03624 36159 ft 443 kts 314°
2026-04-26 23:00 37.01742 -77.09006 36166 ft 443 kts 314°
2026-04-26 23:01 37.06154 -77.14399 36165 ft 443 kts 314°
2026-04-26 23:01 37.10559 -77.19793 36169 ft 443 kts 314°
2026-04-26 23:02 37.14961 -77.25194 36169 ft 442 kts 314°
2026-04-26 23:02 37.19357 -77.30595 36164 ft 442 kts 314°
2026-04-26 23:03 37.23737 -77.35985 36172 ft 441 kts 314°
2026-04-26 23:03 37.28088 -77.41350 36194 ft 441 kts 314°
2026-04-26 23:04 37.32465 -77.46756 36184 ft 440 kts 314°
2026-04-26 23:04 37.36830 -77.52157 36181 ft 440 kts 314°
2026-04-26 23:05 37.41184 -77.57554 36181 ft 439 kts 314°
2026-04-26 23:05 37.45511 -77.62926 36189 ft 438 kts 315°
2026-04-26 23:05 37.47796 -77.65454 36155 ft 439 kts 327°
2026-04-26 23:06 37.50582 -77.67052 36189 ft 441 kts 343°
2026-04-26 23:06 37.53621 -77.67623 36183 ft 445 kts 358°
2026-04-26 23:06 37.56708 -77.67216 36182 ft 449 kts 11°
2026-04-26 23:06 37.59648 -77.65820 36190 ft 455 kts 27°
2026-04-26 23:07 37.62345 -77.63712 36199 ft 456 kts 31°
2026-04-26 23:07 37.67615 -77.59222 36199 ft 457 kts 31°
2026-04-26 23:08 37.72917 -77.54854 36193 ft 457 kts 30°
2026-04-26 23:08 37.78280 -77.50513 36190 ft 458 kts 30°
2026-04-26 23:09 37.83659 -77.46144 36194 ft 459 kts 30°
2026-04-26 23:09 37.89039 -77.41760 36191 ft 460 kts 30°
2026-04-26 23:10 37.94426 -77.37362 36191 ft 461 kts 30°
2026-04-26 23:10 37.99787 -77.32980 36184 ft 461 kts 30°
2026-04-26 23:11 38.05186 -77.28566 36185 ft 461 kts 30°
2026-04-26 23:11 38.10583 -77.24146 36184 ft 460 kts 30°
2026-04-26 23:12 38.15970 -77.19726 36179 ft 461 kts 30°
2026-04-26 23:12 38.21328 -77.15320 36195 ft 461 kts 30°
2026-04-26 23:13 38.26714 -77.10883 36186 ft 461 kts 30°
2026-04-26 23:13 38.32036 -77.06295 36191 ft 463 kts 33°
2026-04-26 23:14 38.37162 -77.01313 36189 ft 463 kts 35°
2026-04-26 23:14 38.42238 -76.96320 36199 ft 463 kts 34°
2026-04-26 23:15 38.47358 -76.91346 36190 ft 462 kts 34°
2026-04-26 23:15 38.52496 -76.86381 36197 ft 462 kts 34°
2026-04-26 23:16 38.57601 -76.81441 36191 ft 462 kts 34°
2026-04-26 23:16 38.62725 -76.76471 36202 ft 462 kts 34°
2026-04-26 23:17 38.67857 -76.71483 36195 ft 463 kts 34°
2026-04-26 23:17 38.72116 -76.67336 36198 ft 463 kts 34°
2026-04-26 23:18 38.77238 -76.62343 36195 ft 463 kts 34°
2026-04-26 23:18 38.82366 -76.57334 36211 ft 463 kts 34°
2026-04-26 23:19 38.87456 -76.52352 36204 ft 462 kts 34°
2026-04-26 23:19 38.92571 -76.47335 36203 ft 462 kts 34°
2026-04-26 23:20 38.97678 -76.42317 36175 ft 463 kts 34°
2026-04-26 23:20 39.00253 -76.39785 35624 ft 469 kts 34°
2026-04-26 23:20 39.02827 -76.37246 35115 ft 464 kts 35°
2026-04-26 23:20 39.05313 -76.34575 34422 ft 465 kts 39°
2026-04-26 23:21 39.07710 -76.31781 33674 ft 465 kts 40°
2026-04-26 23:21 39.10078 -76.28941 32910 ft 464 kts 40°
2026-04-26 23:21 39.12438 -76.26113 32181 ft 462 kts 39°
2026-04-26 23:21 39.14796 -76.23312 31439 ft 461 kts 39°
2026-04-26 23:22 39.17167 -76.20523 30661 ft 460 kts 38°
2026-04-26 23:22 39.19541 -76.17746 29797 ft 459 kts 38°
2026-04-26 23:22 39.21907 -76.14981 28925 ft 458 kts 38°
2026-04-26 23:22 39.24267 -76.12220 28025 ft 457 kts 38°
2026-04-26 23:23 39.26625 -76.09456 27109 ft 457 kts 38°
2026-04-26 23:23 39.28941 -76.06734 26781 ft 443 kts 38°
2026-04-26 23:23 39.31214 -76.04060 26389 ft 445 kts 38°
2026-04-26 23:23 39.33500 -76.01377 26015 ft 453 kts 38°
2026-04-26 23:24 39.35838 -75.98629 25617 ft 454 kts 38°
2026-04-26 23:24 39.38163 -75.95889 25217 ft 449 kts 38°
2026-04-26 23:24 39.40467 -75.93168 24846 ft 445 kts 38°
2026-04-26 23:24 39.42751 -75.90469 24463 ft 442 kts 38°
2026-04-26 23:25 39.45017 -75.87791 24090 ft 440 kts 38°
2026-04-26 23:25 39.47275 -75.85120 23698 ft 438 kts 38°
2026-04-26 23:25 39.49498 -75.82488 23272 ft 436 kts 38°
2026-04-26 23:25 39.51739 -75.79832 22868 ft 434 kts 38°
2026-04-26 23:26 39.53966 -75.77191 22496 ft 432 kts 38°
2026-04-26 23:26 39.56176 -75.74567 22116 ft 430 kts 38°
2026-04-26 23:26 39.58381 -75.71947 21744 ft 428 kts 38°
2026-04-26 23:26 39.60570 -75.69344 21386 ft 427 kts 38°
2026-04-26 23:27 39.62760 -75.66736 21023 ft 425 kts 38°
2026-04-26 23:27 39.64912 -75.64173 20667 ft 424 kts 38°
2026-04-26 23:27 39.67081 -75.61587 20297 ft 423 kts 38°
2026-04-26 23:27 39.69249 -75.58996 19897 ft 424 kts 38°
2026-04-26 23:28 39.71415 -75.56394 19738 ft 424 kts 38°
2026-04-26 23:28 39.73545 -75.53824 19688 ft 408 kts 38°
2026-04-26 23:28 39.75510 -75.51445 19677 ft 390 kts 38°
2026-04-26 23:28 39.77466 -75.49077 19673 ft 374 kts 38°
2026-04-26 23:29 39.79328 -75.46824 19676 ft 357 kts 38°
2026-04-26 23:29 39.81117 -75.44663 19675 ft 342 kts 38°
2026-04-26 23:29 39.82825 -75.42598 19674 ft 328 kts 37°
2026-04-26 23:29 39.84465 -75.40615 19677 ft 315 kts 37°
2026-04-26 23:30 39.86036 -75.38715 19673 ft 303 kts 37°
2026-04-26 23:30 39.87530 -75.36907 19676 ft 290 kts 37°
2026-04-26 23:30 39.88978 -75.35154 19672 ft 278 kts 36°
2026-04-26 23:30 39.90362 -75.33477 19672 ft 266 kts 36°
2026-04-26 23:31 39.91687 -75.31872 19677 ft 256 kts 36°
2026-04-26 23:31 39.92989 -75.30297 19687 ft 256 kts 36°
2026-04-26 23:31 39.94317 -75.28693 19704 ft 265 kts 36°
2026-04-26 23:31 39.95681 -75.27042 19721 ft 270 kts 36°
2026-04-26 23:32 39.97059 -75.25366 19686 ft 272 kts 36°
2026-04-26 23:32 39.98445 -75.23679 19500 ft 272 kts 36°
2026-04-26 23:32 39.99828 -75.21994 19334 ft 271 kts 36°
2026-04-26 23:32 40.01224 -75.20296 18901 ft 279 kts 36°
2026-04-26 23:33 40.02664 -75.18544 18448 ft 286 kts 37°
2026-04-26 23:33 40.04120 -75.16770 17932 ft 292 kts 37°
2026-04-26 23:33 40.05635 -75.14921 17422 ft 297 kts 37°
2026-04-26 23:33 40.07138 -75.13083 16919 ft 302 kts 37°
2026-04-26 23:34 40.08682 -75.11195 16424 ft 307 kts 37°
2026-04-26 23:34 40.10243 -75.09285 15921 ft 307 kts 37°
2026-04-26 23:34 40.11793 -75.07386 15425 ft 304 kts 37°
2026-04-26 23:34 40.13328 -75.05505 14944 ft 300 kts 37°
2026-04-26 23:35 40.14847 -75.03642 14473 ft 298 kts 37°
2026-04-26 23:35 40.16347 -75.01804 13997 ft 295 kts 37°
2026-04-26 23:35 40.17842 -74.99970 13467 ft 292 kts 38°
2026-04-26 23:35 40.19322 -74.98153 12923 ft 290 kts 38°
2026-04-26 23:36 40.20764 -74.96383 12427 ft 287 kts 38°
2026-04-26 23:36 40.22195 -74.94576 11919 ft 287 kts 45°
2026-04-26 23:36 40.23156 -74.92269 11404 ft 295 kts 70°
2026-04-26 23:36 40.23543 -74.89637 10946 ft 295 kts 77°
2026-04-26 23:37 40.23828 -74.86991 10467 ft 293 kts 78°
2026-04-26 23:37 40.24101 -74.84346 9985 ft 291 kts 78°
2026-04-26 23:37 40.24371 -74.81735 9457 ft 289 kts 78°
2026-04-26 23:37 40.24645 -74.79135 8941 ft 287 kts 78°
2026-04-26 23:38 40.24921 -74.76563 8431 ft 284 kts 78°
2026-04-26 23:38 40.25201 -74.74016 7929 ft 280 kts 78°
2026-04-26 23:38 40.25480 -74.71532 7456 ft 273 kts 78°
2026-04-26 23:38 40.25762 -74.69077 6934 ft 271 kts 78°
2026-04-26 23:39 40.26050 -74.66651 6445 ft 268 kts 78°
2026-04-26 23:39 40.26344 -74.64252 5928 ft 265 kts 78°
2026-04-26 23:39 40.26637 -74.61911 5430 ft 262 kts 78°
2026-04-26 23:39 40.26936 -74.59567 4922 ft 259 kts 78°
2026-04-26 23:40 40.27234 -74.57252 4398 ft 256 kts 78°
2026-04-26 23:40 40.27531 -74.54955 3889 ft 254 kts 78°
2026-04-26 23:40 40.27822 -74.52678 3386 ft 251 kts 78°
2026-04-26 23:40 40.28132 -74.50482 3219 ft 235 kts 71°
2026-04-26 23:41 40.28900 -74.48725 3197 ft 213 kts 50°
2026-04-26 23:41 40.29811 -74.47329 3166 ft 199 kts 48°
2026-04-26 23:41 40.30809 -74.46123 3169 ft 195 kts 36°
2026-04-26 23:41 40.31917 -74.45088 2998 ft 195 kts 36°
2026-04-26 23:42 40.33015 -74.44058 2855 ft 192 kts 36°
2026-04-26 23:42 40.35085 -74.42113 2802 ft 173 kts 36°
2026-04-26 23:42 40.36089 -74.41255 2793 ft 172 kts 32°
2026-04-26 23:43 40.37116 -74.40427 2800 ft 174 kts 31°
2026-04-26 23:43 40.38145 -74.39598 2803 ft 174 kts 32°
2026-04-26 23:43 40.39173 -74.38772 2791 ft 173 kts 32°
2026-04-26 23:43 40.40186 -74.37958 2793 ft 173 kts 31°
2026-04-26 23:44 40.41222 -74.37125 2793 ft 172 kts 32°
2026-04-26 23:44 40.42228 -74.36317 2804 ft 170 kts 32°
2026-04-26 23:44 40.43240 -74.35508 2815 ft 169 kts 32°
2026-04-26 23:44 40.44226 -74.34688 2813 ft 167 kts 36°
2026-04-26 23:45 40.45156 -74.33784 2790 ft 165 kts 37°
2026-04-26 23:45 40.46066 -74.32890 2804 ft 162 kts 37°
2026-04-26 23:45 40.46971 -74.31997 2810 ft 163 kts 38°
2026-04-26 23:45 40.47870 -74.31110 2804 ft 162 kts 38°
2026-04-26 23:46 40.48737 -74.30256 2765 ft 147 kts 37°
2026-04-26 23:46 40.49518 -74.29483 2784 ft 138 kts 37°
2026-04-26 23:46 40.50301 -74.28723 2804 ft 142 kts 33°
2026-04-26 23:46 40.51145 -74.28093 2830 ft 138 kts 29°
2026-04-26 23:47 40.51995 -74.27516 2813 ft 134 kts 28°
2026-04-26 23:47 40.52813 -74.26979 2791 ft 130 kts 27°
2026-04-26 23:47 40.53633 -74.26448 2812 ft 131 kts 27°
2026-04-26 23:47 40.54456 -74.25920 2809 ft 130 kts 27°
2026-04-26 23:48 40.55256 -74.25408 2797 ft 130 kts 27°
2026-04-26 23:48 40.56088 -74.24877 2625 ft 134 kts 27°
2026-04-26 23:48 40.56920 -74.24346 2450 ft 133 kts 27°
2026-04-26 23:48 40.57746 -74.23820 2314 ft 129 kts 27°
2026-04-26 23:49 40.58550 -74.23308 2110 ft 125 kts 27°
2026-04-26 23:49 40.59330 -74.22809 1933 ft 123 kts 28°
2026-04-26 23:49 40.60109 -74.22309 1773 ft 127 kts 27°
2026-04-26 23:49 40.60908 -74.21800 1585 ft 127 kts 28°
2026-04-26 23:50 40.61700 -74.21295 1422 ft 127 kts 28°
2026-04-26 23:50 40.62500 -74.20785 1242 ft 127 kts 30°
2026-04-26 23:50 40.63298 -74.20274 1069 ft 129 kts 29°
2026-04-26 23:50 40.64097 -74.19766 901 ft 132 kts 30°
2026-04-26 23:51 40.64937 -74.19229 739 ft 135 kts 28°
2026-04-26 23:51 40.65765 -74.18668 608 ft 135 kts 29°
2026-04-26 23:51 40.66621 -74.18137 395 ft 136 kts 28°
2026-04-26 23:51 40.67467 -74.17586 189 ft 136 kts 25°
2026-04-26 23:52 40.68321 -74.17078 29 ft 133 kts 31°
2026-04-26 23:52 40.69043 -74.16608 22 ft 88 kts 26°
2026-04-26 23:52 40.69396 -74.16381 25 ft 26 kts 23°
2026-04-26 23:52 40.69430 -74.16361 26 ft 1 kts 24°
2026-04-26 23:53 40.69514 -74.16347 24 ft 16 kts 346°
2026-04-26 23:53 40.69585 -74.16453 21 ft 13 kts 292°
2026-04-26 23:53 40.69590 -74.16469 21 ft 0 kts 292°
2026-04-26 23:55 40.69613 -74.16531 22 ft 17 kts 297°
2026-04-26 23:55 40.69683 -74.16712 21 ft 10 kts 292°
2026-04-26 23:55 40.69678 -74.16790 21 ft 17 kts 251°
2026-04-26 23:56 40.69609 -74.16911 22 ft 23 kts 205°
2026-04-26 23:56 40.69525 -74.17055 21 ft 19 kts 259°
2026-04-26 23:56 40.69521 -74.17101 21 ft 0 kts 266°
2026-04-26 23:56 40.69517 -74.17120 15 ft 9 kts 251°
2026-04-26 23:57 40.69451 -74.17099 21 ft 12 kts 101°
2026-04-26 23:57 40.69364 -74.17070 21 ft 15 kts 201°
2026-04-26 23:57 40.69268 -74.17124 21 ft 15 kts 218°
2026-04-26 23:57 40.69278 -74.17243 21 ft 14 kts 302°
2026-04-26 23:58 40.69326 -74.17353 21 ft 14 kts 291°
2026-04-26 23:58 40.69332 -74.17470 21 ft 13 kts 245°
2026-04-26 23:58 40.69280 -74.17529 21 ft 7 kts 216°
2026-04-26 23:58 40.69249 -74.17531 23 ft 5 kts 147°
2026-04-26 23:59 40.69232 -74.17515 21 ft 1 kts 147°